Location: Bratsk-Energetik
(56.3300°N, 101.7600°E)
Time: 13:22:59
(UTC+08:00)

ISS - Pass Details

Date: 26 May 2017
Orbit: 401 x 408 km, 51.6° (Epoch: 27 June)

Event Time Altitude Azimuth Distance (km) Brightness Sun altitude
Rises 23:57:07 0° 242° (WSW) 2,336 -0.1 -11.1°
Reaches altitude 10° 23:59:20 10° 232° (SW) 1,474 -1.2 -11.2°
Maximum altitude 00:02:18 31° 168° (SSE) 743 -3.1 -11.3°
Drops below altitude 10° 00:05:16 10° 104° (ESE) 1,473 -1.3 -11.4°
Sets 00:07:29 0° 94° (E) 2,333 -0.2 -11.5°
